Plainview, TX

11:52 PM CDT on September 29, 2016 (GMT -0500)
Hale County

Weather History for KPVW - December, 2013

Change the Weather History Date:

Sunday, December 29, 2013

  Actual Average Record
Temperature  
Mean Temperature 24 °F -  
Max Temperature 34 °F 48 °F 78 °F (2005)
Min Temperature 14 °F 25 °F 2 °F (1982)
Degree Days  
Heating Degree Days 40    
Moisture  
Dew Point 17 °F    
Average Humidity 68    
Maximum Humidity 89    
Minimum Humidity 48    
Precipitation  
Precipitation 0.00 in - - ()
Sea Level Pressure  
Sea Level Pressure 30.11 in    
Wind  
Wind Speed 12 mph (North)    
Max Wind Speed 24 mph    
Max Gust Speed 34 mph    
Visibility 10 miles    
Events      
Averages and records for this station are not official NWS values.
T = Trace of Precipitation, MM = Missing Value Source: NWS Daily Summary

Daily Weather History Graph

Daily Weather History Graph

Search for Another Location

Airport or City:

Trip Planner

Search our weather history database for the weather conditions in past years. The results will help you decide how hot, cold, wet, or windy it might be!

Date:

Astronomy

Dec. 29, 2013 Rise Set
Actual Time 7:52 AM CST 5:46 PM CST
Civil Twilight 7:24 AM CST 6:14 PM CST
Nautical Twilight 6:53 AM CST 6:45 PM CST
Astronomical Twilight 6:22 AM CST 7:15 PM CST
Moon 4:41 AM CST (12/29) 3:23 PM CST (12/29)
Length of Visible Light 10h 49m
Length of Day
9h 54m
Waning Crescent, 11% of the Moon is Illuminated
Dec 29
Waning Crescent
Jan 1
New
Jan 7
First Quarter
Jan 15
Full
Jan 23
Last Quarter

Hourly Weather History & Observations

Time (CST) Temp. Windchill Dew Point Humidity Pressure Visibility Wind Dir Wind Speed Gust Speed Precip Events Conditions
12:15 AM 30.0 °F 25.2 °F 26.4 °F 86% 29.84 in 10.0 mi SSE 4.6 mph - N/A   Clear
12:35 AM 30.0 °F 25.2 °F 26.4 °F 86% 29.83 in 10.0 mi South 4.6 mph - N/A   Clear
12:55 AM 29.1 °F 22.1 °F 26.1 °F 88% 29.82 in 10.0 mi South 6.9 mph - N/A   Clear
1:15 AM 30.0 °F 25.2 °F 25.7 °F 84% 29.83 in 10.0 mi SSW 4.6 mph - N/A   Clear
1:35 AM 30.0 °F 26.5 °F 25.9 °F 85% 29.83 in 10.0 mi SSW 3.5 mph - N/A   Clear
1:55 AM 30.0 °F - 26.8 °F 88% 29.84 in 10.0 mi Calm Calm - N/A   Clear
2:15 AM 25.7 °F - 22.3 °F 87% 29.84 in 10.0 mi Calm Calm - N/A   Clear
2:35 AM 27.5 °F 21.1 °F 24.6 °F 89% 29.86 in 10.0 mi WNW 5.8 mph - N/A   Clear
2:55 AM 27.5 °F 19.3 °F 24.4 °F 88% 29.88 in 10.0 mi NNW 8.1 mph - N/A   Clear
3:15 AM 30.7 °F 18.5 °F 26.4 °F 84% 29.88 in 10.0 mi North 19.6 mph 28.8 mph N/A   Clear
3:35 AM 34.7 °F 22.8 °F 30.7 °F 85% 29.90 in 10.0 mi NNE 23.0 mph 31.1 mph N/A   Clear
3:55 AM 34.7 °F 23.4 °F 30.7 °F 85% 29.92 in 10.0 mi NNE 20.7 mph 26.5 mph N/A   Clear
4:15 AM 34.7 °F 24.0 °F 30.7 °F 85% 29.94 in 10.0 mi NNE 18.4 mph 28.8 mph N/A   Mostly Cloudy
4:35 AM 34.7 °F 24.0 °F 30.2 °F 84% 29.95 in 10.0 mi NNE 18.4 mph 28.8 mph N/A   Overcast
4:55 AM 32.2 °F 19.7 °F 27.3 °F 82% 29.97 in 10.0 mi NNE 21.9 mph 28.8 mph N/A   Overcast
5:15 AM 30.7 °F 17.2 °F 24.6 °F 78% 29.98 in 10.0 mi NNE 24.2 mph 33.4 mph N/A   Overcast
5:35 AM 30.0 °F 16.3 °F 23.5 °F 77% 29.99 in 10.0 mi NNE 24.2 mph 34.5 mph N/A   Overcast
5:55 AM 30.0 °F 16.3 °F 23.7 °F 77% 30.01 in 10.0 mi NNE 24.2 mph 34.5 mph N/A   Overcast
6:15 AM 30.0 °F 16.3 °F 22.8 °F 75% 30.04 in 10.0 mi NNE 24.2 mph 29.9 mph N/A   Overcast
6:35 AM 27.5 °F 13.9 °F 21.0 °F 77% 30.05 in 10.0 mi NNE 20.7 mph 26.5 mph N/A   Overcast
6:55 AM 27.5 °F 13.5 °F 21.0 °F 77% 30.07 in 10.0 mi NNE 21.9 mph 28.8 mph N/A   Overcast
7:15 AM 27.5 °F 15.0 °F 20.8 °F 76% 30.09 in 10.0 mi NNE 17.3 mph 29.9 mph N/A   Overcast
7:35 AM 24.8 °F 10.3 °F 17.6 °F 74% 30.10 in 10.0 mi North 20.7 mph 28.8 mph N/A   Overcast
7:55 AM 24.6 °F 11.3 °F 16.7 °F 72% 30.12 in 10.0 mi NNE 17.3 mph 27.6 mph N/A   Overcast
8:15 AM 23.4 °F 8.1 °F 14.7 °F 70% 30.12 in 10.0 mi NNE 21.9 mph 32.2 mph N/A   Overcast
8:35 AM 23.4 °F 8.8 °F 14.5 °F 69% 30.14 in 10.0 mi NNE 19.6 mph 27.6 mph N/A   Overcast
8:55 AM 23.0 °F 9.6 °F 14.2 °F 69% 30.15 in 10.0 mi NNE 16.1 mph 26.5 mph N/A   Overcast
9:15 AM 22.6 °F 7.5 °F 13.5 °F 68% 30.17 in 10.0 mi North 20.7 mph 25.3 mph N/A   Overcast
9:35 AM 22.6 °F 7.9 °F 12.9 °F 66% 30.19 in 10.0 mi NNE 19.6 mph 26.5 mph N/A   Overcast
9:55 AM 22.6 °F 7.5 °F 12.6 °F 65% 30.20 in 10.0 mi North 20.7 mph 26.5 mph N/A   Scattered Clouds
10:15 AM 23.7 °F 10.1 °F 13.3 °F 64% 30.21 in 10.0 mi North 17.3 mph 26.5 mph N/A   Clear
10:35 AM 24.1 °F 10.1 °F 13.3 °F 63% 30.22 in 10.0 mi North 18.4 mph 27.6 mph N/A   Clear
10:55 AM 23.9 °F 11.2 °F 12.6 °F 62% 30.22 in 10.0 mi NNE 15.0 mph 25.3 mph N/A   Clear
11:15 AM 23.9 °F 10.8 °F 12.2 °F 61% 30.23 in 10.0 mi NNE 16.1 mph 27.6 mph N/A   Clear
11:35 AM 24.4 °F 10.6 °F 12.7 °F 61% 30.22 in 10.0 mi North 18.4 mph 24.2 mph N/A   Scattered Clouds
11:55 AM 24.8 °F 10.7 °F 12.4 °F 59% 30.22 in 10.0 mi North 19.6 mph 24.2 mph N/A   Mostly Cloudy
12:15 PM 25.7 °F 12.7 °F 12.9 °F 58% 30.21 in 10.0 mi NNE 17.3 mph 23.0 mph N/A   Mostly Cloudy
12:35 PM 27.5 °F 14.6 °F 14.0 °F 57% 30.20 in 10.0 mi North 18.4 mph 23.0 mph N/A   Mostly Cloudy
12:55 PM 27.3 °F 15.2 °F 13.8 °F 57% 30.19 in 10.0 mi NNE 16.1 mph 24.2 mph N/A   Scattered Clouds
1:15 PM 27.7 °F 14.5 °F 13.5 °F 55% 30.18 in 10.0 mi North 19.6 mph 26.5 mph N/A   Clear
1:35 PM 30.0 °F 19.1 °F 14.7 °F 53% 30.17 in 10.0 mi NNE 15.0 mph 24.2 mph N/A   Clear
1:55 PM 30.0 °F 18.7 °F 14.2 °F 52% 30.16 in 10.0 mi NNE 16.1 mph 24.2 mph N/A   Clear
2:15 PM 31.1 °F 19.7 °F 13.8 °F 49% 30.17 in 10.0 mi North 17.3 mph 29.9 mph N/A   Clear
2:35 PM 30.6 °F 19.0 °F 13.6 °F 50% 30.17 in 10.0 mi NNE 17.3 mph 27.6 mph N/A   Clear
2:55 PM 31.3 °F 18.5 °F 14.0 °F 49% 30.17 in 10.0 mi North 21.9 mph 27.6 mph N/A   Clear
3:15 PM 30.7 °F 18.5 °F 13.8 °F 50% 30.16 in 10.0 mi North 19.6 mph 27.6 mph N/A   Clear
3:35 PM 30.2 °F 17.1 °F 13.3 °F 49% 30.17 in 10.0 mi North 21.9 mph 27.6 mph N/A   Clear
3:55 PM 32.0 °F 20.8 °F 14.2 °F 48% 30.18 in 10.0 mi North 17.3 mph 24.2 mph N/A   Clear
4:15 PM 31.5 °F 20.1 °F 13.6 °F 48% 30.18 in 10.0 mi North 17.3 mph 23.0 mph N/A   Clear
4:35 PM 31.1 °F 20.9 °F 13.8 °F 49% 30.18 in 10.0 mi North 13.8 mph 24.2 mph N/A   Clear
4:55 PM 30.0 °F 20.0 °F 13.5 °F 50% 30.18 in 10.0 mi North 12.7 mph 17.3 mph N/A   Clear
5:15 PM 30.0 °F 20.0 °F 14.0 °F 51% 30.18 in 10.0 mi NNE 12.7 mph 21.9 mph N/A   Clear
5:35 PM 30.0 °F 21.1 °F 14.9 °F 53% 30.18 in 10.0 mi North 10.4 mph - N/A   Clear
5:55 PM 30.0 °F 21.1 °F 15.6 °F 55% 30.19 in 10.0 mi North 10.4 mph - N/A   Clear
6:15 PM 27.5 °F 19.3 °F 13.8 °F 56% 30.20 in 10.0 mi North 8.1 mph - N/A   Clear
6:35 PM 27.5 °F 20.2 °F 14.0 °F 57% 30.20 in 10.0 mi North 6.9 mph - N/A   Clear
6:55 PM 26.2 °F 17.8 °F 13.1 °F 58% 30.21 in 10.0 mi North 8.1 mph - N/A   Clear
7:15 PM 24.8 °F 17.9 °F 12.9 °F 61% 30.22 in 10.0 mi North 5.8 mph - N/A   Clear
7:35 PM 23.7 °F 15.6 °F 12.2 °F 61% 30.22 in 10.0 mi North 6.9 mph - N/A   Clear
7:55 PM 22.5 °F 15.1 °F 12.0 °F 64% 30.24 in 10.0 mi North 5.8 mph - N/A   Clear
8:15 PM 21.2 °F 12.6 °F 11.5 °F 66% 30.24 in 10.0 mi North 6.9 mph - N/A   Clear
8:35 PM 21.2 °F 13.6 °F 12.0 °F 68% 30.24 in 10.0 mi North 5.8 mph - N/A   Clear
8:55 PM 21.2 °F 14.9 °F 12.0 °F 68% 30.24 in 10.0 mi North 4.6 mph - N/A   Clear
9:15 PM 20.8 °F 16.0 °F 11.7 °F 68% 30.23 in 10.0 mi North 3.5 mph - N/A   Clear
9:35 PM 20.3 °F - 11.5 °F 69% 30.23 in 10.0 mi Calm Calm - N/A   Clear
9:55 PM 18.7 °F 13.5 °F 10.6 °F 71% 30.23 in 10.0 mi North 3.5 mph - N/A   Clear
10:15 PM 17.4 °F - 10.0 °F 73% 30.23 in 10.0 mi Calm Calm - N/A   Clear
10:35 PM 16.3 °F 10.8 °F 10.2 °F 77% 30.22 in 10.0 mi West 3.5 mph - N/A   Clear
10:55 PM 16.0 °F 8.8 °F 10.0 °F 77% 30.23 in 10.0 mi WNW 4.6 mph - N/A   Clear
11:15 PM 16.5 °F - 10.4 °F 77% 30.22 in 10.0 mi Calm Calm - N/A   Clear
11:35 PM 15.3 °F 7.9 °F 9.5 °F 78% 30.22 in 10.0 mi West 4.6 mph - N/A   Clear
11:55 PM 14.9 °F 7.5 °F 9.3 °F 79% 30.21 in 10.0 mi West 4.6 mph - N/A   Clear